FW7442 Weather Reports


time (UTC)temp
C
wind
direction
speed
KPH
gust
KPH
rain 1hr
cm
rain 24hr
cm
rain mn
cm
humidity
%
barometer
mb
20260906051603 20 273 0.0 0.0 0.00 0.00 0.00 92 1014.3
20260906050113 20 0 0.0 0.0 0.00 0.00 0.00 92 1014.5
20260906044602 20 0 0.0 3.2 0.00 0.00 0.00 92 1014.4
20260906043103 20 0 0.0 0.0 0.00 0.00 0.00 92 1014.4
20260906041602 20 0 0.0 0.0 0.00 0.00 0.00 92 1014.5
20260906040117 21 0 0.0 1.6 0.00 0.00 0.00 91 1014.5
20260906034607 21 0 0.0 1.6 0.00 0.00 0.00 91 1014.8
20260906033111 21 0 0.0 0.0 0.00 0.00 0.00 91 1014.6
20260906031557 21 273 0.0 1.6 0.00 0.00 0.00 91 1014.7
20260906030105 21 0 0.0 1.6 0.00 0.00 0.00 91 1014.7
20260906024603 21 0 0.0 0.0 0.00 0.00 0.00 90 1014.5
20260906023101 21 273 0.0 3.2 0.00 0.00 0.00 90 1014.4
20260906021607 22 339 1.6 4.8 0.00 0.00 0.00 89 1014.5
20260906020110 22 297 1.6 4.8 0.00 0.00 0.00 89 1014.4
20260906014602 22 0 0.0 3.2 0.00 0.00 0.00 88 1014.3
20260906013110 22 0 0.0 3.2 0.00 0.00 0.00 88 1014.2
20260906011608 23 0 0.0 0.0 0.00 0.00 0.00 87 1014.1
20260906004604 23 0 0.0 0.0 0.00 0.00 0.00 86 1013.7
20260906003105 24 0 0.0 1.6 0.00 0.00 0.00 84 1013.5
20260906001601 24 0 0.0 1.6 0.00 0.00 0.00 84 1013.4
20260905234604 26 0 0.0 1.6 0.00 0.00 0.00 79 1013.3
20260905233100 26 348 0.0 3.2 0.00 0.00 0.00 77 1013.1
20260905231602 27 0 0.0 3.2 0.00 0.00 0.00 77 1013.1
20260905230100 27 0 0.0 1.6 0.00 0.00 0.00 74 1012.9
20260905224602 27 0 0.0 4.8 0.00 0.00 0.00 69 1012.9
20260905223102 28 345 1.6 6.4 0.00 0.00 0.00 69 1012.8
20260905221601 28 296 1.6 12.9 0.00 0.00 0.00 67 1013.1
20260905220100 30 283 1.6 9.7 0.00 0.00 0.00 65 1013.0
20260905214605 29 335 3.2 8.0 0.00 0.00 0.00 64 1013.1
20260905213102 30 316 1.6 4.8 0.00 0.00 0.00 63 1013.2
20260905211600 28 0 0.0 4.8 0.00 0.00 0.00 69 1013.2
20260905210123 27 0 1.6 4.8 0.00 0.00 0.00 73 1013.2
20260905204603 27 0 0.0 4.8 0.00 0.00 0.00 73 1013.5
20260905203104 26 204 0.0 4.8 0.00 0.00 0.00 74 1013.8
20260905201601 26 0 0.0 6.4 0.00 0.00 0.00 76 1014.0
20260905200117 26 312 1.6 6.4 0.00 0.00 0.00 77 1014.0
20260905194608 25 79 1.6 4.8 0.00 0.00 0.00 79 1014.1
20260905193100 25 0 0.0 0.0 0.00 0.00 0.00 77 1014.3
20260905191608 24 0 0.0 4.8 0.00 0.00 0.00 78 1014.3
20260905190056 25 9 3.2 8.0 0.00 0.00 0.00 78 1014.2
20260905184624 25 153 1.6 8.0 0.00 0.00 0.00 76 1013.3
20260905183105 25 0 0.0 6.4 0.00 0.00 0.00 71 1013.9
20260905181601 25 0 0.0 11.3 0.00 0.00 0.00 72 1014.0
20260905180106 25 109 3.2 29.0 0.00 0.00 0.00 70 1015.1
20260905174603 30 9 20.9 46.7 0.00 0.00 0.00 57 1015.6
20260905173110 35 338 1.6 11.3 0.00 0.00 0.00 55 1015.0
20260905171614 35 0 1.6 14.5 0.00 0.00 0.00 54 1015.0
20260905170057 35 243 1.6 14.5 0.00 0.00 0.00 53 1015.1
20260905164603 32 122 0.0 11.3 0.00 0.00 0.00 57 1015.2
20260905163112 33 205 3.2 14.5 0.00 0.00 0.00 54 1015.5
20260905161559 34 304 4.8 12.9 0.00 0.00 0.00 55 1015.7
20260905160107 34 265 3.2 9.7 0.00 0.00 0.00 55 1015.9
20260905154617 34 0 1.6 8.0 0.00 0.00 0.00 52 1015.8
20260905153109 33 315 1.6 12.9 0.00 0.00 0.00 58 1015.7
20260905151614 32 5 1.6 8.0 0.00 0.00 0.00 62 1015.6
20260905150101 33 5 3.2 11.3 0.00 0.00 0.00 62 1015.6
20260905144558 32 314 1.6 6.4 0.00 0.00 0.00 61 1015.7
20260905143104 31 44 1.6 6.4 0.00 0.00 0.00 68 1015.7
20260905141558 31 0 1.6 3.2 0.00 0.00 0.00 71 1015.6
20260905140059 30 32 0.0 3.2 0.00 0.00 0.00 73 1015.7
20260905134556 28 32 1.6 4.8 0.00 0.00 0.00 78 1015.7
20260905133104 27 0 1.6 4.8 0.00 0.00 0.00 80 1015.7
20260905131606 27 16 1.6 4.8 0.00 0.00 0.00 83 1015.9
20260905130059 26 5 0.0 4.8 0.00 0.00 0.00 84 1016.0
20260905124557 25 333 0.0 0.0 0.00 0.00 0.00 88 1016.0
20260905123104 23 0 0.0 0.0 0.00 0.00 0.00 92 1015.9
20260905121604 22 0 0.0 0.0 0.00 0.00 0.00 92 1015.8
20260905120100 21 0 0.0 0.0 0.00 0.00 0.00 95 1015.8
20260905114558 21 0 0.0 0.0 0.00 0.00 0.00 94 1015.9
20260905113104 21 0 0.0 0.0 0.00 0.00 0.00 94 1015.6
20260905111646 21 0 0.0 0.0 0.00 0.00 0.00 94 1015.4
20260905110058 21 0 0.0 0.0 0.00 0.00 0.00 94 1014.9
20260905104603 21 0 0.0 0.0 0.00 0.00 0.00 94 1014.9
20260905103101 21 0 0.0 0.0 0.00 0.00 0.00 94 1014.9
20260905101603 21 0 0.0 0.0 0.00 0.00 0.00 94 1014.7
20260905100106 21 0 0.0 0.0 0.00 0.00 0.00 93 1014.7
20260905094601 21 0 0.0 0.0 0.00 0.00 0.00 94 1014.6
20260905093106 21 0 0.0 0.0 0.00 0.00 0.00 93 1014.6
20260905091554 21 0 0.0 0.0 0.00 0.00 0.00 93 1014.6
20260905084606 21 0 0.0 0.0 0.00 0.00 0.00 93 1014.6
20260905083106 21 0 0.0 0.0 0.00 0.00 0.00 93 1015.0
20260905081605 22 0 0.0 0.0 0.00 0.00 0.00 93 1015.1
20260905080127 22 0 0.0 0.0 0.00 0.00 0.00 93 1015.3
20260905074601 22 0 0.0 0.0 0.00 0.00 0.00 92 1015.4
20260905073102 22 0 0.0 0.0 0.00 0.00 0.00 93 1015.5
20260905071604 22 0 0.0 0.0 0.00 0.00 0.00 92 1015.7
20260905070107 22 0 0.0 0.0 0.00 0.00 0.00 92 1015.7
20260905064606 22 0 0.0 0.0 0.00 0.00 0.00 92 1015.9
20260905063106 22 0 0.0 0.0 0.00 0.00 0.00 92 1016.0
20260905061600 22 0 0.0 0.0 0.00 0.00 0.00 92 1016.2
20260905060104 22 0 0.0 0.0 0.00 0.00 0.00 92 1016.4
20260905054602 22 0 0.0 0.0 0.00 0.00 0.00 92 1016.7
20260905053109 23 0 0.0 1.6 0.00 0.00 0.00 91 1016.9